Weather History for La Crosse, WI

Change the Weather History Date:

Tuesday, January 1, 2013

  Actual Average Record
Temperature  
Mean Temperature 3 °F 18 °F  
Max Temperature 16 °F 26 °F 57 °F (1897)
Min Temperature -10 °F 10 °F -21 °F (1974)
Degree Days  
Heating Degree Days 62 47  
Month to date heating degree days 62 47  
Since 1 July heating degree days 2752 2891  
Cooling Degree Days 0 0  
Month to date cooling degree days 0 0  
Year to date cooling degree days 0 0  
Moisture  
Dew Point -2 °F    
Average Humidity 77    
Maximum Humidity 95    
Minimum Humidity 58    
Precipitation  
Precipitation T in 0.03 in 0.92 in (1876)
Month to date precipitation T 0.03  
Year to date precipitation T 0.03  
Snow  
Snow T in 0.30 in 5.50 in (1942)
Month to date snowfall T 0.3  
Since 1 July snowfall 18.4 15.9  
Snow Depth 7.00 in    
Sea Level Pressure  
Sea Level Pressure 30.29 in    
Wind  
Wind Speed 3 mph (SW)    
Max Wind Speed 12 mph    
Max Gust Speed 13 mph    
Visibility 10 miles    
Events      
T = Trace of Precipitation, MM = Missing Value Source: NWS Daily Summary

Daily Weather History Graph

Daily Weather History Graph

Search for Another Location

Airport:

Trip Planner

Search our weather history database for the weather conditions in past years. The results will help you decide how hot, cold, wet, or windy it might be!

Date:

Astronomy

Jan. 01, 2013 Rise Set
Actual Time 7:39 AM CST 4:38 PM CST
Civil Twilight 7:06 AM CST 5:11 PM CST
Nautical Twilight 6:30 AM CST 5:47 PM CST
Astronomical Twilight 5:55 AM CST 6:22 PM CST
Moon 9:19 PM CST (1/1) 9:42 AM CST (1/1)
Length of Visible Light 10h 04m
Length of Day
8h 59m
Waning Gibbous, 83% of the Moon is Illuminated
Jan 1
Waning Gibbous
Jan 4
Last Quarter
Jan 11
New
Jan 18
First Quarter
Jan 26
Full

Hourly Weather History & Observations

Time (CST) Temp. Windchill Dew Point Humidity Pressure Visibility Wind Dir Wind Speed Gust Speed Precip Events Conditions
12:53 AM -2.0 °F -12.2 °F -6.0 °F 83% 30.32 in 10.0 mi North 4.6 mph - N/A   Clear
2:53 AM -4.0 °F -14.6 °F -8.0 °F 83% 30.33 in 10.0 mi North 4.6 mph - N/A   Clear
3:53 AM -6.0 °F -14.7 °F -9.0 °F 87% 30.33 in 10.0 mi NW 3.5 mph - N/A   Clear
4:53 AM -5.1 °F - -9.0 °F 83% 30.36 in 10.0 mi Calm Calm - N/A   Clear
5:53 AM -6.0 °F -14.7 °F -9.0 °F 87% 30.37 in 10.0 mi NNW 3.5 mph - N/A   Clear
6:53 AM -8.0 °F - -11.0 °F 86% 30.38 in 10.0 mi Calm Calm - N/A   Clear
7:53 AM -8.0 °F - -11.9 °F 83% 30.39 in 10.0 mi Calm Calm - N/A   Clear
8:53 AM -4.0 °F - -7.1 °F 87% 30.39 in 10.0 mi Calm Calm - N/A   Clear
9:53 AM -4.0 °F - -5.1 °F 95% 30.37 in 10.0 mi Calm Calm - N/A   Clear
10:53 AM 1.0 °F - -4.0 °F 79% 30.36 in 10.0 mi Calm Calm - N/A   Clear
11:53 AM 7.0 °F - -0.9 °F 70% 30.33 in 10.0 mi Calm Calm - N/A   Clear
12:53 PM 8.1 °F -0.5 °F -2.0 °F 64% 30.30 in 10.0 mi South 4.6 mph - N/A   Clear
1:53 PM 12.0 °F 4.1 °F -0.9 °F 56% 30.29 in 10.0 mi SW 4.6 mph - N/A   Clear
2:21 PM 12.2 °F 2.9 °F -0.4 °F 57% 30.21 in 10.0 mi WSW 5.8 mph - N/A   Mostly Cloudy
2:53 PM 12.9 °F 6.9 °F 1.0 °F 59% 30.28 in 10.0 mi NW 3.5 mph - N/A   Overcast
3:53 PM 12.9 °F - 1.0 °F 59% 30.27 in 10.0 mi Calm Calm - N/A   Overcast
4:27 PM 12.2 °F - 1.4 °F 62% 30.18 in 10.0 mi Calm Calm - N/A   Overcast
4:53 PM 14.0 °F 6.5 °F 1.0 °F 56% 30.27 in 10.0 mi South 4.6 mph - N/A   Overcast
5:53 PM 14.0 °F 6.5 °F 1.9 °F 59% 30.26 in 10.0 mi South 4.6 mph - N/A   Overcast
6:53 PM 14.0 °F 5.1 °F 3.0 °F 62% 30.25 in 10.0 mi South 5.8 mph - N/A   Overcast
7:53 PM 15.1 °F 5.2 °F 5.0 °F 64% 30.24 in 10.0 mi South 6.9 mph - N/A   Overcast
8:53 PM 15.1 °F 7.7 °F 6.1 °F 68% 30.22 in 10.0 mi South 4.6 mph - N/A   Overcast
9:53 PM 15.1 °F 6.4 °F 7.0 °F 70% 30.21 in 10.0 mi SSE 5.8 mph - N/A   Overcast
10:53 PM 15.1 °F 2.5 °F 8.1 °F 74% 30.21 in 10.0 mi SSW 10.4 mph - N/A   Overcast
11:53 PM 16.0 °F 7.4 °F 8.1 °F 71% 30.19 in 10.0 mi South 5.8 mph - N/A   Overcast